Volver al catálogo

COSMOS 861

ActivoMilitarLEO
NORAD 9494·PAYLOAD·🇷🇺 Russia

Lanzado Oct 21, 1976 desde Baikonur Cosmodrome

Loading…

Próximos Pases (próximas 24 horas)

TLE

ActualizadoSource: Space-Track

Época: Sep 14, 2026, 05:14 UTC

1 09494U 76104A   26257.21861251 -.00000072  00000-0  15496-4 0  9991
2 09494  64.8592 189.5296 0040933 164.2578 195.9763 13.81727953518240

Sigue COSMOS 861 en tiempo real con AllMySat

Download on the App Store